[[{"header":{"parameterUnit":"m.s-1","parameterCategory":1,"la1":30.2991,"la2":30.254,"lo1":-89.0895,"lo2":-89.0444,"dy":0.0017,"dx":0.0017,"nx":28,"ny":28,"refTime":"2024-08-26T03:00:00:Z","depth":0,"parameterNumber":2,"parameterNumberName":"U-component_of_WINDS"},"data":[0,0,0,0,0,0,0,0,0,0,0,0,0,0,0,0,0,0,0,0,0,0,0,0,0,0,0,0,0,0,0,0,0,0,0,0,0,0,0,0,0,0,0,0,0,0,0,0,0,0,0,0,0,0,0,0,0,0,-1.9965,-1.9966,0,-2.0088,-2.009,-2.0091,-2.0109,-2.0108,-2.0107,-2.0106,-2.0236,-2.024,-2.0245,0,0,0,0,0,0,0,0,0,0,0,0,0,-1.975,-1.9753,-1.9965,-1.9967,-1.9968,-2.0088,-2.009,-2.0092,-2.0109,-2.0108,-2.0107,-2.0105,-2.0235,-2.024,-2.0245,0,0,0,0,0,0,0,0,0,0,0,0,0,-1.9855,-1.9755,-1.9965,-1.9991,-1.9995,-2.0088,-2.009,-2.0092,-2.011,-2.0108,-2.0106,-2.0105,-2.0233,-2.0239,-2.0246,-2.0322,0,0,-2.0267,-2.027,0,0,0,0,0,0,0,0,-1.9849,-1.9863,-1.9986,-1.999,-1.9994,-2.0082,-2.0062,-2.0169,-2.011,-2.0066,-2.0106,-2.0104,-2.0186,-2.0197,-2.0224,-2.0328,-2.0334,-2.0267,-2.0272,-2.0274,-2.0276,0,0,0,0,0,0,0,-1.9842,-1.9858,-2.0014,-1.9988,-1.9993,-1.9999,-2.0012,-2.0082,-2.0135,-2.007,-2.0072,-2.0086,-2.0188,-2.0217,-2.0227,-2.0336,-2.0267,-2.0273,-2.0277,-2.028,-2.0511,-2.0513,0,0,0,0,0,0,-1.9829,-1.9852,-2.001,-2.0018,-1.9916,-2.0004,-2.0019,-2.0055,-2.0134,-2.0144,-2.0087,-2.0086,-2.0206,-2.0219,-2.0232,-2.0327,-2.0274,-2.0281,-2.0285,-2.0509,-2.0511,-2.0514,0,0,0,0,0,0,-1.9824,-1.9843,-2.0005,-1.9935,-1.9956,-2.0009,-2.0051,-2.0059,-2.0088,-2.0147,-2.0156,-2.0107,-2.0206,-2.0222,-2.03,-2.0332,-2.0284,-2.029,-2.0507,-2.051,-2.0513,-2.0517,0,0,0,0,0,0,-1.9818,-1.9841,-1.9869,-1.9936,-1.996,-2.007,-2.0052,-2.0062,-2.0099,-2.0099,-2.0168,-2.0178,-2.0206,-2.0289,-2.0306,-2.034,-2.0295,-2.0504,-2.0508,-2.0512,-2.0515,-2.052,-2.0525,0,0,0,0,0,-1.981,-1.9866,-1.9871,-1.989,-1.9996,-2.0071,-2.0085,-2.0115,-2.0101,-2.0131,-2.0169,-2.0175,-2.0325,-2.0297,-2.0317,-2.0353,-2.0502,-2.0507,-2.0511,-2.0512,-2.0519,-2.0525,0,0,0,0,0,0,-1.9804,-1.9875,-1.9881,-1.996,-2.0009,-2.0074,-2.0112,-2.0121,-2.0177,-2.0175,-2.0211,-2.0226,-2.0302,-2.0335,-2.0303,-2.0432,-2.0413,-2.0421,-2.0407,-2.0414,-2.0419,-2.041,-2.0301,0,0,0,0,0,-1.9811,-1.9865,-1.9925,-1.9989,-2.0014,-2.0059,-2.0093,-2.0111,-2.0165,-2.0186,-2.023,-2.0282,-2.0341,-2.038,-2.0437,-2.052,-2.0536,-2.0554,-2.056,-2.0564,-2.0571,-2.0619,-2.0628,-2.0529,-2.0529,-2.0529,0,0,-1.9828,-1.9874,-1.9905,-1.9989,-2.003,-2.0086,-2.0076,-2.0136,-2.0179,-2.0195,-2.0271,-2.0305,-2.0367,-2.0447,-2.0485,-2.0477,-2.0602,-2.057,-2.0572,-2.0578,-2.0624,-2.0634,-2.0642,-2.0532,-2.0531,-2.0531,0,0,-1.9887,-1.9926,-1.9984,-2.0025,-2.0086,-2.0116,-2.013,-2.0194,-2.0217,-2.0293,-2.0307,-2.0359,-2.046,-2.0503,-2.0538,-2.0615,-2.0624,-2.0633,-2.0661,-2.0707,-2.0714,-2.0722,-2.075,-2.076,-2.064,-2.064,-2.064,0,-1.99,-1.9984,-2.0013,-2.0073,-2.011,-2.0127,-2.0187,-2.0225,-2.0302,-2.0329,-2.0318,-2.0446,-2.0488,-2.058,-2.0599,-2.0626,-2.0645,-2.0625,-2.0711,-2.0718,-2.0725,-2.0753,-2.0763,-2.0641,-2.0641,-2.0641,-2.0641,0,-1.9998,-2.0056,-2.0096,-2.0169,-2.021,-2.027,-2.031,-2.0349,-2.0364,-2.0396,-2.0475,-2.0526,-2.0595,-2.0618,-2.0634,-2.0713,-2.0706,-2.0703,-2.0685,-2.0735,-2.0761,-2.0772,-2.0642,-2.0642,-2.0641,-2.0641,0,0,-2.0055,-2.0144,-2.0158,-2.0192,-2.0261,-2.0308,-2.0369,-2.0435,-2.0468,-2.0522,-2.0575,-2.066,-2.0658,-2.0698,-2.0719,-2.076,-2.0819,-2.0752,-2.0754,-2.0763,-2.091,-2.0912,-2.0924,-2.0824,-2.0827,-2.0828,-2.0905,0,-2.0123,-2.0231,-2.0259,-2.0352,-2.0407,-2.0424,-2.0478,-2.0527,-2.0558,-2.0611,-2.0646,-2.0706,-2.0698,-2.0723,-2.0763,-2.0803,-2.0849,-2.0798,-2.0876,-2.0878,-2.086,-2.0938,-2.094,-2.101,-2.0916,-2.0917,-2.0919,0,-2.0216,-2.027,-2.0367,-2.043,-2.0454,-2.0501,-2.0565,-2.0615,-2.0672,-2.0692,-2.0737,-2.0755,-2.0821,-2.0799,-2.0892,-2.0856,-2.0891,-2.0915,-2.0919,-2.0927,-2.0902,-2.0949,-2.1033,-2.1044,-2.0935,-2.0934,-2.0933,0,-2.025,-2.0347,-2.0418,-2.0446,-2.0521,-2.0554,-2.0587,-2.0642,-2.068,-2.0737,-2.0762,-2.0826,-2.0861,-2.0911,-2.0946,-2.0927,-2.1037,-2.1017,-2.1057,-2.1056,-2.1079,-2.1077,-2.117,-2.11,-2.11,-2.11,-2.11,0,-2.0322,-2.0382,-2.0434,-2.0477,-2.0545,-2.0578,-2.0644,-2.0678,-2.0727,-2.0779,-2.0799,-2.0848,-2.0891,-2.0946,-2.0974,-2.1048,-2.1063,-2.1083,-2.109,-2.1082,-2.1079,-2.1105,-2.1101,-2.1103,-2.1102,-2.1101,-2.1101,0,-2.0372,-2.0409,-2.0487,-2.0551,-2.0569,-2.0616,-2.0672,-2.0716,-2.0748,-2.0814,-2.0831,-2.0882,-2.0948,-2.0988,-2.1072,-2.1092,-2.1173,-2.1178,-2.1153,-2.1157,-2.1194,-2.119,-2.1307,-2.1325,-2.1242,-2.1242,-2.1243,0,-2.0416,-2.0461,-2.053,-2.0566,-2.0599,-2.0656,-2.0695,-2.073,-2.0771,-2.0839,-2.0876,-2.0943,-2.0998,-2.1103,-2.1149,-2.1214,-2.1221,-2.1257,-2.1231,-2.1221,-2.1223,-2.122,-2.1225,-2.1262,-2.1262,-2.1263,-2.1264,0,-2.0491,-2.0507,-2.0562,-2.0623,-2.0669,-2.072,-2.077,-2.0799,-2.0843,-2.0888,-2.0955,-2.0997,-2.1083,-2.115,-2.1219,-2.1255,-2.1268,-2.1271,-2.1284,-2.1277,-2.1261,-2.1271,-2.1166,-2.1269,-2.1268,-2.1268,-2.1268,-2.1267,-2.054,-2.0582,-2.0637,-2.0697,-2.0739,-2.0786,-2.0831,-2.0868,-2.0924,-2.0995,-2.1013,-2.1084,-2.1142,-2.1235,-2.1273,-2.133,-2.1325,-2.1343,-2.1347,-2.1352,-2.1353,-2.1251,-2.1343,-2.1342,-2.1342,-2.1342,-2.1342,0,-2.0617,-2.0653,-2.0708,-2.0778,-2.0826,-2.0832,-2.0889,-2.0929,-2.0991,-2.1042,-2.1096,-2.1174,-2.124,-2.129,-2.1358,-2.1394,-2.1402,-2.1411,-2.1409,-2.1417,-2.1353,-2.1336,-2.1404,-2.1403,-2.1403,-2.1403,-2.1403,-2.1403,-2.0663,-2.0734,-2.0757,-2.085,-2.0886,-2.0954,-2.0986,-2.103,-2.1072,-2.1157,-2.1211,-2.1243,-2.1296,-2.1367,-2.1428,-2.1441,-2.1466,-2.1474,-2.1489,-2.1428,-2.1422,-2.1415,-2.1399,-2.1479,-2.1479,-2.1548,-2.1549,-2.1549]},{"header":{"parameterUnit":"m.s-1","parameterCategory":1,"la1":30.2991,"la2":30.254,"lo1":-89.0895,"lo2":-89.0444,"dy":0.0017,"dx":0.0017,"nx":28,"ny":28,"refTime":"2024-08-26T03:00:00:Z","depth":0,"parameterNumber":3,"parameterNumberName":"V-component_of_WINDS"},"data":[0,0,0,0,0,0,0,0,0,0,0,0,0,0,0,0,0,0,0,0,0,0,0,0,0,0,0,0,0,0,0,0,0,0,0,0,0,0,0,0,0,0,0,0,0,0,0,0,0,0,0,0,0,0,0,0,0,0,4.043,4.043,0,4.0449,4.0449,4.045,4.0442,4.0442,4.0442,4.0441,4.0458,4.0459,4.046,0,0,0,0,0,0,0,0,0,0,0,0,0,4.0384,4.0385,4.043,4.043,4.043,4.0449,4.0449,4.045,4.0442,4.0442,4.0441,4.0441,4.0458,4.0459,4.046,0,0,0,0,0,0,0,0,0,0,0,0,0,4.0404,4.0385,4.043,4.0429,4.0429,4.0449,4.0449,4.045,4.0443,4.0442,4.0441,4.0441,4.0458,4.0459,4.046,4.0481,0,0,4.0464,4.0465,0,0,0,0,0,0,0,0,4.0403,4.0406,4.0429,4.0429,4.0429,4.0443,4.044,4.046,4.0443,4.0437,4.0441,4.044,4.0453,4.0455,4.046,4.0482,4.0483,4.0464,4.0465,4.0465,4.0466,0,0,0,0,0,0,0,4.0401,4.0405,4.0437,4.0429,4.043,4.0427,4.0429,4.0444,4.0449,4.0438,4.0437,4.044,4.0453,4.0459,4.046,4.0483,4.0464,4.0465,4.0466,4.0467,4.0523,4.0524,0,0,0,0,0,0,4.04,4.0404,4.0437,4.0438,4.0414,4.0428,4.0431,4.0439,4.0449,4.0449,4.044,4.044,4.0457,4.0459,4.0461,4.0486,4.0465,4.0467,4.0467,4.0522,4.0523,4.0524,0,0,0,0,0,0,4.0399,4.0403,4.0436,4.0421,4.0425,4.043,4.0439,4.044,4.0445,4.0451,4.0451,4.0445,4.0456,4.0459,4.0476,4.0486,4.0467,4.0468,4.0521,4.0522,4.0523,4.0536,0,0,0,0,0,0,4.0398,4.0403,4.0412,4.0421,4.0426,4.0452,4.044,4.0441,4.0448,4.0447,4.0455,4.0456,4.0456,4.0474,4.0478,4.0488,4.0469,4.052,4.0522,4.0523,4.0535,4.0537,4.054,0,0,0,0,0,4.0397,4.0414,4.0412,4.0416,4.0436,4.0452,4.0455,4.0456,4.0449,4.0457,4.046,4.0456,4.0485,4.0476,4.048,4.049,4.052,4.0521,4.0523,4.0534,4.0537,4.054,0,0,0,0,0,0,4.0404,4.0415,4.0413,4.0434,4.0443,4.0451,4.0461,4.0459,4.0469,4.0467,4.0467,4.0469,4.0487,4.049,4.048,4.0511,4.0501,4.0504,4.0508,4.0511,4.0514,4.0512,4.0471,0,0,0,0,0,4.0408,4.0421,4.043,4.0447,4.0452,4.0456,4.0463,4.0463,4.0471,4.0475,4.0479,4.0487,4.0498,4.0505,4.0515,4.0536,4.0537,4.0545,4.0547,4.0549,4.0551,4.0562,4.0565,4.0529,4.0529,4.0529,0,0,4.0417,4.0424,4.0432,4.0449,4.0456,4.0468,4.0459,4.0473,4.0482,4.0476,4.0493,4.0497,4.0505,4.0524,4.0533,4.0528,4.0562,4.0551,4.0553,4.0554,4.0564,4.0567,4.057,4.053,4.053,4.053,0,0,4.0439,4.0446,4.0462,4.0469,4.0479,4.0482,4.0486,4.0495,4.0498,4.0515,4.0511,4.0522,4.0541,4.0547,4.0552,4.0578,4.0574,4.0581,4.0594,4.0604,4.0607,4.061,4.0618,4.0621,4.0583,4.0583,4.0583,0,4.0447,4.0467,4.047,4.0484,4.0491,4.0488,4.0504,4.051,4.0523,4.0528,4.0522,4.0546,4.0552,4.0572,4.0578,4.0583,4.0587,4.058,4.0607,4.0609,4.0612,4.062,4.0623,4.0584,4.0584,4.0584,4.0584,0,4.0477,4.0491,4.0502,4.0516,4.0525,4.054,4.0543,4.0552,4.0551,4.0555,4.0572,4.0579,4.059,4.0595,4.0595,4.0616,4.0612,4.0607,4.0597,4.0616,4.0623,4.0627,4.0585,4.0585,4.0585,4.0585,0,0,4.0503,4.0519,4.0523,4.053,4.0542,4.0552,4.0566,4.0579,4.0586,4.0595,4.0607,4.0623,4.0619,4.0625,4.0625,4.0635,4.0654,4.0628,4.0629,4.0632,4.0677,4.068,4.0684,4.0652,4.0652,4.0653,4.0676,0,4.0525,4.0552,4.0555,4.0578,4.0591,4.0589,4.0601,4.061,4.0613,4.0624,4.0628,4.0639,4.0633,4.0637,4.0646,4.065,4.0663,4.0648,4.0662,4.0662,4.0659,4.0688,4.0691,4.0712,4.0679,4.0679,4.068,0,4.0555,4.0566,4.0591,4.0602,4.0607,4.0619,4.063,4.0641,4.065,4.0652,4.066,4.0659,4.0673,4.0664,4.0683,4.0673,4.0679,4.0681,4.0682,4.0683,4.0671,4.0688,4.0719,4.0722,4.0685,4.0684,4.0684,0,4.057,4.0592,4.061,4.0615,4.0628,4.0636,4.0642,4.0651,4.0658,4.0669,4.0673,4.0685,4.0691,4.0699,4.0701,4.0694,4.072,4.0711,4.0722,4.0721,4.0726,4.0726,4.0758,4.0732,4.0731,4.0731,4.0731,0,4.0594,4.0609,4.0617,4.0628,4.0644,4.0648,4.0664,4.0669,4.0677,4.0688,4.0687,4.0697,4.07,4.071,4.0712,4.0727,4.073,4.0732,4.0732,4.0731,4.0731,4.0734,4.0732,4.0732,4.0732,4.0732,4.0732,0,4.0614,4.062,4.0639,4.065,4.0653,4.0665,4.0675,4.0685,4.0689,4.0703,4.0706,4.0712,4.0725,4.0728,4.0743,4.0744,4.0762,4.0761,4.0759,4.0758,4.0769,4.0767,4.0803,4.0808,4.0779,4.078,4.078,0,4.0628,4.064,4.0653,4.0661,4.0668,4.068,4.0688,4.0692,4.07,4.0713,4.0721,4.0734,4.0744,4.0764,4.0769,4.078,4.0779,4.0791,4.078,4.0779,4.0778,4.0777,4.0778,4.0792,4.0792,4.0793,4.0793,0,4.0653,4.0656,4.0668,4.0681,4.0691,4.0702,4.0712,4.0718,4.0723,4.0732,4.0746,4.0754,4.077,4.0782,4.0793,4.0798,4.0796,4.0796,4.0799,4.0798,4.0796,4.0797,4.0763,4.0795,4.0795,4.0795,4.0795,4.0794,4.067,4.068,4.0692,4.0705,4.0714,4.0723,4.0733,4.0739,4.0751,4.0765,4.0766,4.078,4.079,4.0805,4.0811,4.0821,4.0818,4.0822,4.0823,4.0824,4.0824,4.0796,4.0824,4.0824,4.0823,4.0823,4.0823,0,4.0694,4.0701,4.0714,4.0729,4.074,4.0739,4.075,4.0758,4.0772,4.0781,4.0792,4.0807,4.0819,4.0826,4.0837,4.0845,4.0844,4.0848,4.0847,4.0848,4.0827,4.0823,4.0848,4.0848,4.0848,4.0848,4.0848,4.0848,4.0708,4.0725,4.0729,4.0751,4.0758,4.0773,4.078,4.0788,4.0796,4.0814,4.0824,4.0829,4.0837,4.085,4.0861,4.0862,4.0866,4.087,4.0871,4.0852,4.0849,4.0847,4.0843,4.0871,4.0871,4.089,4.089,4.089]}]]